Location: Izdebno
(52.6670°N, 16.2170°E)
Time: 02:31:40
(UTC+02:00)

SR - Pass Details

Date: 03 March 2024
Orbit: 577 x 862 km, 66.7° (Epoch: 22 April)

Event Time Altitude Azimuth Distance (km) Brightness Sun altitude
Rises 13:23:51 0° 201° (SSW) 3,435 ? 28.6°
Reaches altitude 10° 13:26:24 10° 197° (SSW) 2,493 ? 28.5°
Maximum altitude 13:32:02 54° 121° (ESE) 1,013 ? 28.1°
Drops below altitude 10° 13:37:27 10° 46° (NE) 2,397 ? 27.8°
Sets 13:39:51 0° 42° (NE) 3,291 ? 27.6°
